THOR BURNER 2 R/B

Satellite information

Favourite Embed

Satellite Type and Status

ROCKET BODYIN ORBIT

Key statistics

Satellite THOR BURNER 2 R/B at a glance.

Uptime

19288

Days in orbit

Revolutions

≈ 14.2

Per day

Orbit

SSO

Sun Synchronous Orbit

Inclination

98.6

Latest

Satellite identification and parameters

Extended collection of information and parameters for THOR BURNER 2 R/B.

Object identification

Identified? True

Debris? False

Object name: THOR BURNER 2 R/B

International designator: 1972-089B

Object number (NORAD): 6276

Object ID (CCSDS): 6276

Country: UNITED STATES OF AMERICA (US)

Current information (Y/N): Y

RCS size: LARGE

Orbital parameters

Period: 101.264 minutes

Inclination: 98.5683 deg

SMA: 7196.641 km

Apoapsis: 844.222 km

Periapsis: 792.79 km

RAAN: 50.397 deg

Eccentricy: 0.00357338

Argument of periapsis: 208.0857 deg

Mean anomaly: 151.8394 deg

Mean motion: 14.22027513 rev/day

Mean motion (dot): 0.00000217 rev/day2

B* drag term: 0.00011660007 1/REarth

Two-line elements (TLE)

Creation date: Aug. 31, 2025, 2:26 a.m.

Reference frame: TEME

Reference center: EARTH

Epoch: Aug. 30, 2025, 10:21 a.m. UTC

TLE line 0: 0 THOR BURNER 2 R/B

TLE line 1: 1 06276U 72089B 25242.43141751 .00000217 00000-0 11660-3 0 9995

TLE line 2: 2 06276 98.5683 50.3970 0035734 208.0857 151.8394 14.22027513735045

Live tracking on map

Real-time ground track for satellite THOR BURNER 2 R/B.

In-orbit conjunctions

A list of the most updated potential collisions computed for object THOR BURNER 2 R/B.

Target Orbit TCA Probability of collision Miss distance Type
QUAKESAT SSO 2025-04-20 03:21:36 0.00278202 74.0 (m) PAYLOAD
PEGASUS R/B SSO 2025-03-17 11:55:44 0.000168029 87.0 (m) ROCKET BODY
THORAD AGENA D DEB SSO 2025-01-14 06:59:57 0.0001831169 46.0 (m) DEBRIS
METEOR 1-5 DEB LEO 2024-12-15 15:08:30 0.0001402006 165.0 (m) DEBRIS
CZ-6A DEB LEO 2024-11-29 06:38:11 0.0001652589 163.0 (m) DEBRIS

Associated space launch

Military meteorological satellite

THOR BURNER 2 R/B was lifted into orbit during the mission ‘Thor Burner 2A | DSAP-5B F3’, on board a Thor Burner 2A space rocket.

The launch took place on Nov. 9, 1972, 3:23 a.m. from Space Launch Complex 10W.

For more information about the launch, click the button.

Launch to space Thor Burner 2A | DSAP-5B F3
Thor Burner 2A | DSAP-5B F3

Agency: N/A

Status: Launch Successful

Launch date: Nov. 9, 1972, 3:23 a.m. UTC

Rocket: Thor Burner 2A

Launch pad: Space Launch Complex 10W

Location: Vandenberg SFB, CA, USA

...

Latest news about this satellite

There are no fresh news available about this satellite. Check back as we update our databases every day.


Newsletter sign-up

Weekly statistics, charts and insights to help you stay on top of the space industry.